View from above orbital plane
|
View from above satellite
|
Ground track
|
The orbit data is extracted from the following two-line orbital elements,
1 27640U 03001A 21102.59507241 -.00000003 00000-0 19581-4 0 9994
2 27640 98.7245 113.4121 0013064 255.6723 213.5635 14.19066630945844
Epoch (UTC): | 12 April 2021 14:16:54 |
Eccentricity: | 0.0013064 |
inclination: | 98.7245° |
perigee height: | 819 km |
apogee height: | 838 km |
right ascension of ascending node: | 113.4121° |
argument of perigee: | 255.6723° |
revolutions per day: | 14.19066630 |
mean anomaly at epoch: | 213.5635° |
orbit number at epoch: | 94584 |
The dashed part of the orbit path shows where the satellite is in the earth's shadow,
|
|